Regional Weather Roundup
Issued by NWS Kansas City/Pleasant Hill, MO

Home | Current Version | Previous Version | Graphics & Text | Print | Product List | Glossary Off
Versions: 1 2 3 4 5 6 7 8 9 10 11 12 13 14 15 16 17 18 19 20 21 22 23 24 25 26 27 28 29 30 31 32 33 34 35 36 37 38 39 40 41 42 43 44 45 46 47 48 49 50

104
ASUS43 KEAX 281110
RWREAX

WEATHER ROUNDUP FOR EASTERN KANSAS AND NORTHWEST MISSOURI
NATIONAL WEATHER SERVICE KANSAS CITY/PLEASANT HILL MO
600 AM CDT SAT MAY 28 2016

KSZ040-057-103>105-MOZ028-029-037-043-281200-
...KANSAS CITY METROPOLITAN AREA...

CITY           SKY/WX    TMP DP  RH WIND       PRES   REMARKS
K.C. INTL      CLOUDY    59  57  93 SE7       29.77F
K.C. DOWNTOWN  CLOUDY    62  58  86 SE5       29.78R
LEES SUMMIT    CLOUDY    59  57  93 E7        29.79S
OLATHE - IXD   CLOUDY    59  58  96 E7        29.78S
OLATHE - OJC   CLOUDY    58  57  97 E5        29.78S
LAWRENCE       CLOUDY    60  58  92 SE10      29.76F

$$

MOZ001>008-011>017-020>025-030>033-038>040-044>046-053-054-281200-
...NORTHERN AND CENTRAL MISSOURI...

CITY           SKY/WX    TMP DP  RH WIND       PRES   REMARKS
ST. JOSEPH     MOCLDY    60  58  92 S3        29.76S
MOSBY          CLOUDY    59  59 100 SE3       29.79S
WARRENSBURG    FOG       55  55 100 CALM      29.80R VSB 1/4
WHITEMAN AFB   CLEAR     61  61 100 S5        29.80R
CLINTON        CLEAR     63  63 100 S7        29.81R
SEDALIA        CLOUDY    63  60  90 S9        29.82R
WARSAW         NOT AVBL
CHILLICOTHE      N/A     60  59  96 S5        29.81R
KIRKSVILLE     PTCLDY    64  63  96 S9        29.80R

$$

MOZ041-047>049-056>058-063>065-088>090-097-281200-
...EASTERN AND SOUTHERN MISSOURI...

CITY           SKY/WX    TMP DP  RH WIND       PRES   REMARKS
ST. LOUIS INTL CLOUDY    69  64  84 S10       29.88S
SPIRIT OF STL  CLOUDY    68  65  90 S9        29.86R
COLUMBIA       CLEAR     65  64  97 S12       29.83R
JEFFERSON CITY CLOUDY    66  63  90 SE7       29.83R
ROLLA          PTCLDY    64  62  93 S8        29.85R
SPRINGFIELD    CLOUDY    63  60  90 S9        29.85R
JOPLIN         CLEAR     63  61  93 S12       29.83R
WEST PLAINS    CLOUDY    66  62  87 S7        29.92R

$$

IAZ060-094-KSZ022-034>040-054-083-096-NEZ052-066-093-281200-
...KANSAS...SOUTHEAST NEBRASKA AND IOWA...

CITY           SKY/WX    TMP DP  RH WIND       PRES   REMARKS
TOPEKA         CLOUDY    60  58  92 E7        29.74F
MANHATTAN      CLOUDY    60  57  89 NW3       29.74R
EMPORIA        CLEAR     58  57  97 S8        29.74S
CHANUTE        CLEAR     63  60  90 S13       29.78R
WICHITA        MOCLDY    58  55  90 W8        29.78R
OMAHA          CLOUDY    62  58  86 SW9       29.74R
LINCOLN        PTCLDY    57  55  93 CALM      29.75S
FALLS CITY     CLOUDY    59  58  96 S3        29.75R
LAMONI         CLOUDY    62  62 100 SE6       29.76R
DES MOINES     CLOUDY    63  59  87 SE3       29.73F

$$





USA.gov is the U.S. government's official web portal to all federal, state and local government web resources and services.